AD4UU Weather Reports


time (UTC)temp
F
wind
direction
speed
knots
gust
knots
rain 1hr
in
rain 24hr
in
rain mn
in
humidity
%
barometer
mb
20260504202530 85 81 6.1 11.3 0.00 0.00 0.00 40 1015.8
20260504202030 86 87 1.7 6.1 0.00 0.00 0.00 41 1016.0
20260504201542 84 130 2.6 7.8 0.00 0.00 0.00 41 1015.8
20260504201030 83 165 3.5 9.6 0.00 0.00 0.00 42 1016.0
20260504200534 83 148 4.3 9.6 0.00 0.00 0.00 41 1016.1
20260504200053 83 72 2.6 8.7 0.00 0.00 0.00 43 1016.2
20260504195528 83 67 3.5 9.6 0.00 0.00 0.00 43 1016.3
20260504195029 83 0 2.6 9.6 0.00 0.00 0.00 42 1016.3
20260504194549 83 86 5.2 9.6 0.00 0.00 0.00 42 1016.3
20260504194030 84 73 1.7 8.7 0.00 0.00 0.00 43 1016.4
20260504193530 84 103 3.5 11.3 0.00 0.00 0.00 42 1016.5
20260504193047 84 115 4.3 11.3 0.00 0.00 0.00 42 1016.6
20260504192529 84 130 6.1 11.3 0.00 0.00 0.00 42 1016.6
20260504192029 84 88 3.5 9.6 0.00 0.00 0.00 40 1016.7
20260504191545 84 72 0.9 7.8 0.00 0.00 0.00 41 1016.8
20260504191033 84 69 2.6 12.2 0.00 0.00 0.00 40 1016.8
20260504190529 83 81 5.2 12.2 0.00 0.00 0.00 40 1016.9
20260504190045 83 90 5.2 11.3 0.00 0.00 0.00 39 1017.0
20260504185530 83 31 5.2 11.3 0.00 0.00 0.00 38 1017.0
20260504185029 83 45 0.9 8.7 0.00 0.00 0.00 39 1017.3
20260504184556 83 140 1.7 10.4 0.00 0.00 0.00 37 1017.3
20260504184030 82 103 5.2 12.2 0.00 0.00 0.00 37 1017.4
20260504183530 82 69 6.1 12.2 0.00 0.00 0.00 37 1017.4
20260504183047 82 41 4.3 9.6 0.00 0.00 0.00 39 1017.4
20260504182529 83 60 3.5 9.6 0.00 0.00 0.00 37 1017.7
20260504182029 82 129 2.6 10.4 0.00 0.00 0.00 38 1017.7
20260504181553 83 142 3.5 10.4 0.00 0.00 0.00 37 1017.8
20260504181031 83 130 3.5 10.4 0.00 0.00 0.00 39 1017.8
20260504180535 83 188 2.6 8.7 0.00 0.00 0.00 39 1017.7
20260504180050 82 116 3.5 10.4 0.00 0.00 0.00 39 1017.9
20260504175529 82 83 3.5 10.4 0.00 0.00 0.00 38 1017.9
20260504175031 81 79 5.2 11.3 0.00 0.00 0.00 38 1018.0
20260504174546 81 121 4.3 11.3 0.00 0.00 0.00 39 1018.0
20260504174029 82 86 5.2 11.3 0.00 0.00 0.00 37 1018.0
20260504173531 82 98 1.7 11.3 0.00 0.00 0.00 40 1018.1
20260504173050 81 155 4.3 11.3 0.00 0.00 0.00 39 1018.1
20260504172610 81 65 5.2 10.4 0.00 0.00 0.00 39 1018.1
20260504172030 81 73 5.2 10.4 0.00 0.00 0.00 38 1018.2
20260504171548 81 44 6.1 10.4 0.00 0.00 0.00 41 1018.1
20260504171030 81 153 0.9 4.3 0.00 0.00 0.00 41 1018.3
20260504170530 80 0 0.9 8.7 0.00 0.00 0.00 42 1018.3
20260504151029 76 0 0.9 12.2 0.00 0.00 0.00 51 1019.5
20260504150535 76 86 2.6 12.2 0.00 0.00 0.00 50 1019.5
20260504141031 74 42 3.5 8.7 0.00 0.00 0.00 61 1019.6
20260504140534 74 73 3.5 8.7 0.00 0.00 0.00 61 1019.5
20260504130534 69 57 4.3 13.0 0.00 0.00 0.00 77 1019.1
20260504110529 56 0 0.0 0.0 0.00 0.00 0.00 94 1018.5
20260504100528 56 0 0.0 0.9 0.00 0.00 0.00 93 1018.1
20260504081556 58 0 0.0 0.9 0.00 0.00 0.00 89 1018.4
20260504081031 58 0 0.0 0.9 0.00 0.00 0.00 89 1018.5
20260504080528 58 0 0.0 0.9 0.00 0.00 0.00 89 1018.4
20260504050533 62 0 0.0 0.0 0.00 0.00 0.00 83 1019.5
20260504045531 61 0 0.0 0.0 0.00 0.00 0.00 83 1019.4
20260504045030 62 0 0.0 0.0 0.00 0.00 0.00 83 1019.5
20260504044545 62 0 0.0 0.0 0.00 0.00 0.00 82 1019.6
20260504044030 62 0 0.0 0.0 0.00 0.00 0.00 82 1019.6
20260504043528 62 0 0.0 0.0 0.00 0.00 0.00 82 1019.6
20260504043055 62 0 0.0 0.0 0.00 0.00 0.00 81 1019.6
20260504042528 62 0 0.0 0.9 0.00 0.00 0.00 80 1019.6
20260504042031 63 0 0.0 0.9 0.00 0.00 0.00 79 1019.6
20260504041544 64 12 0.0 1.7 0.00 0.00 0.00 78 1019.6
20260504041031 65 0 0.0 2.6 0.00 0.00 0.00 77 1019.6
20260504040531 65 31 0.0 3.5 0.00 0.00 0.00 77 1019.7
20260504040046 65 51 0.9 3.5 0.00 0.00 0.00 77 1019.6
20260504035531 65 46 0.9 3.5 0.00 0.00 0.00 76 1019.7
20260504035031 66 78 1.7 3.5 0.00 0.00 0.00 75 1019.7
20260504034549 66 80 0.9 3.5 0.00 0.00 0.00 75 1019.7
20260504034030 66 64 0.9 3.5 0.00 0.00 0.00 75 1019.6
20260504033528 66 76 0.9 3.5 0.00 0.00 0.00 75 1019.6
20260504033048 66 84 0.0 4.3 0.00 0.00 0.00 75 1019.3
20260504032532 66 86 0.9 4.3 0.00 0.00 0.00 75 1019.5
20260504032029 66 46 0.9 4.3 0.00 0.00 0.00 74 1019.4
20260504031546 66 78 1.7 3.5 0.00 0.00 0.00 74 1019.4
20260504031028 66 77 0.9 2.6 0.00 0.00 0.00 74 1019.4
20260504030528 67 67 0.0 2.6 0.00 0.00 0.00 73 1019.5
20260504030047 67 56 0.0 2.6 0.00 0.00 0.00 73 1019.4
20260504025531 67 0 0.9 4.3 0.00 0.00 0.00 72 1019.2
20260504025031 67 58 0.9 4.3 0.00 0.00 0.00 72 1019.2
20260504024548 67 71 0.9 4.3 0.00 0.00 0.00 72 1019.2
20260504024030 67 78 1.7 7.0 0.00 0.00 0.00 72 1019.3
20260504023531 67 110 1.7 7.0 0.00 0.00 0.00 71 1019.2
20260504023049 68 69 2.6 6.1 0.00 0.00 0.00 71 1019.2
20260504022533 68 85 1.7 7.8 0.00 0.00 0.00 71 1018.8
20260504022033 68 106 2.6 7.8 0.00 0.00 0.00 70 1018.9
20260504021556 68 87 1.7 6.1 0.00 0.00 0.00 69 1018.9
20260504021030 68 80 0.9 7.0 0.00 0.00 0.00 69 1018.9
20260504020531 69 67 0.9 7.0 0.00 0.00 0.00 68 1018.7
20260504020125 69 57 2.6 7.0 0.00 0.00 0.00 68 1018.7
20260504015529 69 72 4.3 7.0 0.00 0.00 0.00 67 1018.7
20260504015029 69 81 3.5 7.0 0.00 0.00 0.00 67 1018.5
20260504014559 69 84 3.5 10.4 0.00 0.00 0.00 66 1018.4
20260504014030 69 83 4.3 10.4 0.00 0.00 0.00 65 1018.2
20260504013528 70 65 2.6 7.8 0.00 0.00 0.00 64 1018.3
20260504013055 70 77 3.5 7.8 0.00 0.00 0.00 64 1018.1
20260504012531 70 85 3.5 10.4 0.00 0.00 0.00 63 1018.2
20260504012030 70 78 5.2 10.4 0.00 0.00 0.00 63 1018.0
20260504011546 70 78 4.3 9.6 0.00 0.00 0.00 62 1017.8
20260504011030 71 66 3.5 8.7 0.00 0.00 0.00 62 1017.9
20260504010533 71 65 3.5 8.7 0.00 0.00 0.00 62 1017.9
20260504010044 71 79 2.6 8.7 0.00 0.00 0.00 62 1017.8
20260504005531 71 72 3.5 8.7 0.00 0.00 0.00 61 1017.7
20260504005031 71 57 4.3 9.6 0.00 0.00 0.00 61 1017.8
20260504004608 71 96 5.2 9.6 0.00 0.00 0.00 61 1017.9
20260504004031 71 86 5.2 9.6 0.00 0.00 0.00 60 1017.8
20260504003530 72 86 4.3 11.3 0.00 0.00 0.00 60 1017.7
20260504003051 72 67 6.1 11.3 0.00 0.00 0.00 60 1017.7
20260504002530 72 103 4.3 9.6 0.00 0.00 0.00 60 1017.8
20260504002030 72 80 5.2 10.4 0.00 0.00 0.00 59 1017.7
20260504001617 72 87 3.5 11.3 0.00 0.00 0.00 59 1017.7
20260504001030 73 70 4.3 11.3 0.00 0.00 0.00 58 1017.6
20260504000531 73 83 3.5 8.7 0.00 0.00 0.00 57 1017.7
20260504000100 73 94 5.2 9.6 0.00 0.00 0.00 56 1017.6
20260503235531 74 91 4.3 9.6 0.00 0.00 0.00 56 1017.7
20260503235031 74 80 3.5 9.6 0.00 0.00 0.00 56 1017.7
20260503234543 74 76 3.5 8.7 0.00 0.00 0.00 56 1017.7
20260503234031 75 86 4.3 8.7 0.00 0.00 0.00 55 1017.6
20260503233531 75 107 1.7 7.8 0.00 0.00 0.00 54 1017.5
20260503233049 75 46 3.5 8.7 0.00 0.00 0.00 54 1017.4
20260503232530 75 105 3.5 9.6 0.00 0.00 0.00 54 1017.5
20260503232030 76 80 3.5 9.6 0.00 0.00 0.00 53 1017.3
20260503231549 76 82 2.6 7.8 0.00 0.00 0.00 54 1017.3
20260503231031 76 81 3.5 7.8 0.00 0.00 0.00 53 1017.2
20260503230531 76 63 4.3 7.8 0.00 0.00 0.00 52 1017.3
20260503230107 77 111 2.6 8.7 0.00 0.00 0.00 52 1017.3
20260503225530 77 92 4.3 9.6 0.00 0.00 0.00 52 1017.3
20260503225032 77 96 4.3 9.6 0.00 0.00 0.00 52 1017.2
20260503224546 77 103 4.3 13.0 0.00 0.00 0.00 52 1017.2
20260503224034 78 105 3.5 13.0 0.00 0.00 0.00 51 1017.1
20260503223533 78 69 6.1 13.0 0.00 0.00 0.00 51 1017.2
20260503223045 79 74 5.2 11.3 0.00 0.00 0.00 51 1017.3
20260503222529 79 98 4.3 10.4 0.00 0.00 0.00 50 1017.3
20260503222030 79 92 4.3 9.6 0.00 0.00 0.00 51 1017.3
20260503221545 79 85 4.3 9.6 0.00 0.00 0.00 51 1017.4
20260503221030 79 132 4.3 10.4 0.00 0.00 0.00 51 1017.4
20260503220531 79 88 6.1 10.4 0.00 0.00 0.00 51 1017.4
20260503220053 79 86 5.2 12.2 0.00 0.00 0.00 50 1017.4
20260503215530 80 73 5.2 12.2 0.00 0.00 0.00 49 1017.4
20260503215031 80 75 5.2 7.8 0.00 0.00 0.00 48 1017.2
20260503214555 80 321 1.7 4.3 0.00 0.00 0.00 43 1017.2
20260503214035 80 30 1.7 5.2 0.00 0.00 0.00 43 1017.1
20260503213530 80 304 1.7 7.8 0.00 0.00 0.00 43 1017.2
20260503213047 80 285 2.6 11.3 0.00 0.00 0.00 43 1017.2
20260503212530 81 346 5.2 11.3 0.00 0.00 0.00 43 1017.3
20260503212031 81 51 3.5 8.7 0.00 0.00 0.00 44 1017.2
20260503211548 81 67 4.3 7.8 0.00 0.00 0.00 44 1017.2
20260503211030 81 36 0.9 7.0 0.00 0.00 0.00 44 1017.1
20260503210530 80 313 1.7 8.7 0.00 0.00 0.00 45 1017.1
20260503210046 80 31 4.3 10.4 0.00 0.00 0.00 44 1017.1
20260503205531 80 348 3.5 10.4 0.00 0.00 0.00 43 1017.1
20260503205030 81 34 1.7 7.0 0.00 0.00 0.00 44 1017.2
20260503204545 81 344 1.7 8.7 0.00 0.00 0.00 44 1017.3
20260503204031 80 78 0.9 9.6 0.00 0.00 0.00 45 1017.5
20260503203530 80 30 0.9 9.6 0.00 0.00 0.00 44 1017.4
20260503203102 80 39 3.5 9.6 0.00 0.00 0.00 46 1017.4